Smyrna, TN

3:36 AM CDT on October 20, 2018 (GMT -0500)
Smyrna

Weather History for KMQY - February, 2018

Change the Weather History Date:

Wednesday, February 14, 2018

  Actual Average Record
Temperature  
Mean Temperature 58 °F -  
Max Temperature 62 °F 49 °F 68 °F (2005)
Min Temperature 55 °F 34 °F 16 °F (2015)
Degree Days  
Heating Degree Days 6    
Growing Degree Days 8 (Base 50)    
Moisture  
Dew Point 56 °F    
Average Humidity 93    
Maximum Humidity 96    
Minimum Humidity 88    
Precipitation  
Precipitation 0.23 in - - ()
Sea Level Pressure  
Sea Level Pressure 30.18 in    
Wind  
Wind Speed 7 mph (South)    
Max Wind Speed 12 mph    
Max Gust Speed 17 mph    
Visibility 8 miles    
Events Rain    
Averages and records for this station are not official NWS values.
T = Trace of Precipitation, MM = Missing Value Source: NWS Daily Summary

Daily Weather History Graph

Daily Weather History Graph

Search for Another Location

Airport or City:

Astronomy

Feb. 14, 2018 Rise Set
Actual Time 6:34 AM CST 5:26 PM CST
Civil Twilight 6:08 AM CST 5:52 PM CST
Nautical Twilight 5:38 AM CST 6:22 PM CST
Astronomical Twilight 5:08 AM CST 6:52 PM CST
Moon 5:51 AM CST (2/14) 4:29 PM CST (2/14)
Length of Visible Light 11h 44m
Length of Day
10h 52m
Waning Crescent, 1% of the Moon is Illuminated
Feb 14
Waning Crescent
Feb 15
New
Feb 23
First Quarter
Mar 1
Full
Mar 9
Last Quarter

Hourly Weather History & Observations

Time (CST) Temp. Dew Point Humidity Pressure Visibility Wind Dir Wind Speed Gust Speed Precip Events Conditions
12:56 AM 55.0 °F 54.0 °F 96% 30.31 in 9.0 mi South 5.8 mph - N/A Rain Light Rain
1:39 AM 55.4 °F 53.6 °F 94% 30.42 in 7.0 mi South 4.6 mph - 0.02 in Rain Light Rain
1:56 AM 55.0 °F 54.0 °F 96% 30.28 in 6.0 mi SSE 5.8 mph - 0.02 in Rain Light Rain
2:56 AM 55.0 °F 54.0 °F 96% 30.26 in 6.0 mi Calm Calm - 0.04 in Rain Light Rain
3:48 AM 55.4 °F 53.6 °F 94% 30.38 in 4.0 mi SSE 3.5 mph - 0.00 in Rain Light Rain
3:56 AM 55.0 °F 54.0 °F 96% 30.24 in 4.0 mi SSE 4.6 mph - 0.00 in Rain Light Rain
4:20 AM 55.4 °F 53.6 °F 94% 30.38 in 7.0 mi South 6.9 mph - 0.01 in Rain Light Rain
4:56 AM 55.9 °F 54.0 °F 93% 30.23 in 9.0 mi South 5.8 mph - 0.01 in   Overcast
5:56 AM 55.9 °F 54.0 °F 93% 30.24 in 10.0 mi South 6.9 mph - N/A   Overcast
6:56 AM 55.9 °F 54.0 °F 93% 30.25 in 10.0 mi SSW 10.4 mph 17.3 mph N/A   Overcast
7:56 AM 55.0 °F 54.0 °F 96% 30.25 in 6.0 mi South 10.4 mph - 0.02 in Rain Rain
8:56 AM 55.9 °F 54.0 °F 93% 30.25 in 6.0 mi South 10.4 mph - 0.05 in Rain Rain
9:56 AM 57.0 °F 55.0 °F 93% 30.25 in 10.0 mi South 5.8 mph - 0.00 in   Overcast
10:56 AM 57.9 °F 55.9 °F 93% 30.22 in 10.0 mi South 9.2 mph - N/A   Overcast
11:19 AM 59.0 °F 55.4 °F 88% 30.34 in 10.0 mi South 9.2 mph - N/A   Overcast
11:56 AM 59.0 °F 55.9 °F 90% 30.16 in 10.0 mi SSW 10.4 mph - N/A   Overcast
12:56 PM 59.0 °F 55.9 °F 90% 30.14 in 10.0 mi South 11.5 mph - N/A   Overcast
1:56 PM 59.0 °F 55.9 °F 90% 30.11 in 3.0 mi South 8.1 mph - 0.00 in Rain Light Rain
2:29 PM 59.0 °F 57.2 °F 94% 30.24 in 10.0 mi South 8.1 mph - 0.00 in Rain Light Rain
2:56 PM 59.0 °F 57.0 °F 93% 30.08 in 10.0 mi South 6.9 mph - 0.00 in Rain Light Rain
3:56 PM 59.0 °F 57.0 °F 93% 30.06 in 4.0 mi South 8.1 mph - 0.00 in Rain Light Rain
4:14 PM 59.0 °F 57.2 °F 94% 30.22 in 3.0 mi South 6.9 mph - 0.01 in Rain Rain
4:44 PM 59.0 °F 57.2 °F 94% 30.20 in 3.0 mi South 6.9 mph - 0.06 in Rain Light Rain
4:56 PM 59.0 °F 57.0 °F 93% 30.02 in 3.0 mi South 6.9 mph - 0.06 in Rain Light Rain
5:56 PM 59.0 °F 57.9 °F 96% 30.03 in 6.0 mi South 5.8 mph - 0.02 in   Overcast
6:56 PM 60.1 °F 57.9 °F 93% 30.02 in 10.0 mi SSW 6.9 mph - 0.00 in   Overcast
7:56 PM 60.1 °F 59.0 °F 96% 30.02 in 10.0 mi South 8.1 mph 16.1 mph 0.01 in   Overcast
8:38 PM 60.8 °F 59.0 °F 94% 30.19 in 10.0 mi South 8.1 mph - N/A   Overcast
8:56 PM 61.0 °F 59.0 °F 93% 30.00 in 10.0 mi South 10.4 mph - N/A   Overcast
9:56 PM 62.1 °F 59.0 °F 90% 29.97 in 10.0 mi South 9.2 mph - N/A   Overcast
11:56 PM 62.1 °F 61.0 °F 96% 29.94 in 10.0 mi SSW 8.1 mph - 0.00 in Rain Light Rain